EW7966 Weather Reports


time (UTC)temp
C
wind
direction
speed
KPH
gust
KPH
rain 1hr
cm
rain 24hr
cm
rain mn
cm
humidity
%
barometer
mb
20200531082500 14 244 6.4 11.3 0.00 0.00 0.00 66 1030.5
20200531082005 14 232 6.4 11.3 0.00 0.00 0.00 66 1030.5
20200531081500 14 217 8.0 12.9 0.00 0.00 0.00 66 1030.5
20200531081005 14 227 8.0 11.3 0.00 0.00 0.00 66 1030.6
20200531080500 14 240 8.0 12.9 0.00 0.00 0.00 66 1030.5
20200531080006 14 245 9.7 12.9 0.00 0.00 0.00 67 1030.6
20200531075500 14 241 9.7 12.9 0.00 0.00 0.00 67 1030.7
20200531075007 14 234 9.7 14.5 0.00 0.00 0.00 67 1030.7
20200531074500 14 236 9.7 14.5 0.00 0.00 0.00 68 1030.8
20200531074004 14 233 8.0 12.9 0.00 0.00 0.00 69 1030.8
20200531073500 13 244 9.7 12.9 0.00 0.00 0.00 70 1030.8
20200531073005 13 238 4.8 11.3 0.00 0.00 0.00 70 1030.8
20200531073001 13 238 4.8 11.3 0.00 0.00 0.00 70 1017.0
20200531072501 13 233 8.0 14.5 0.00 0.00 0.00 71 1030.9
20200531072007 13 231 9.7 16.1 0.00 0.00 0.00 71 1030.9
20200531071459 13 234 11.3 16.1 0.00 0.00 0.00 71 1031.0
20200531071003 13 242 9.7 14.5 0.00 0.00 0.00 71 1031.1
20200531070504 13 249 11.3 14.5 0.00 0.00 0.00 71 1031.1
20200531070012 13 239 8.0 12.9 0.00 0.00 0.00 72 1031.1
20200531070008 13 226 8.0 12.9 0.00 0.00 0.00 72 1017.3
20200531065501 13 240 8.0 11.3 0.00 0.00 0.00 71 1031.1
20200531065004 14 246 6.4 11.3 0.00 0.00 0.00 70 1031.2
20200531064501 14 226 6.4 11.3 0.00 0.00 0.00 68 1031.3
20200531064011 15 237 3.2 9.7 0.00 0.00 0.00 67 1031.4
20200531063502 15 206 4.8 9.7 0.00 0.00 0.00 67 1031.4
20200531063009 14 205 3.2 9.7 0.00 0.00 0.00 68 1031.4
20200531063003 14 203 3.2 9.7 0.00 0.00 0.00 68 1017.6
20200531062501 14 226 6.4 9.7 0.00 0.00 0.00 69 1031.5
20200531062004 14 237 6.4 9.7 0.00 0.00 0.00 68 1031.5
20200531061500 15 233 4.8 9.7 0.00 0.00 0.00 66 1031.5
20200531061008 15 238 4.8 9.7 0.00 0.00 0.00 65 1031.6
20200531060500 15 244 4.8 11.3 0.00 0.00 0.00 63 1031.7
20200531060009 16 178 4.8 11.3 0.00 0.00 0.00 62 1017.9
20200531055500 16 225 4.8 14.5 0.00 0.00 0.00 60 1031.8
20200531055003 16 215 6.4 16.1 0.00 0.00 0.00 58 1031.8
20200531054501 16 207 9.7 19.3 0.00 0.00 0.00 58 1031.9
20200531054004 16 187 9.7 19.3 0.00 0.00 0.00 59 1032.0
20200531053500 16 203 9.7 20.9 0.00 0.00 0.00 60 1032.1
20200531053010 16 210 11.3 22.5 0.00 0.00 0.00 61 1018.6
20200531053006 16 210 11.3 22.5 0.00 0.00 0.00 61 1032.3
20200531052500 16 212 11.3 22.5 0.00 0.00 0.00 62 1032.2
20200531052003 16 190 4.8 20.9 0.00 0.00 0.00 61 1032.4
20200531051500 16 190 9.7 20.9 0.00 0.00 0.00 60 1032.4
20200531051004 17 219 6.4 12.9 0.00 0.00 0.00 57 1032.5
20200531050500 17 173 6.4 12.9 0.00 0.00 0.00 56 1032.5
20200531050021 16 199 6.4 29.0 0.00 0.00 0.00 56 1018.8
20200531050013 16 144 6.4 29.0 0.00 0.00 0.00 56 1032.6
20200531045501 15 211 6.4 17.7 0.00 0.00 0.00 63 1032.5
20200531045003 15 81 0.0 0.0 0.00 0.00 0.00 65 1032.2
20200531044500 16 81 0.0 0.0 0.00 0.00 0.00 62 1032.3
20200531044009 15 27 0.0 0.0 0.00 0.00 0.00 62 1032.4
20200531043500 15 27 0.0 0.0 0.00 0.00 0.00 65 1032.5
20200531043019 15 27 0.0 0.0 0.00 0.00 0.00 66 1018.7
20200531043007 15 26 0.0 0.0 0.00 0.00 0.00 66 1032.4
20200531042500 15 224 0.0 0.0 0.00 0.00 0.00 65 1032.4
20200531042004 15 224 0.0 0.0 0.00 0.00 0.00 65 1032.4
20200531041500 16 224 0.0 1.6 0.00 0.00 0.00 64 1032.4
20200531041003 16 225 0.0 1.6 0.00 0.00 0.00 61 1032.4
20200531040500 16 155 0.0 0.0 0.00 0.00 0.00 60 1032.3
20200531040007 16 279 0.0 0.0 0.00 0.00 0.00 60 1018.6
20200531035501 16 279 0.0 0.0 0.00 0.00 0.00 61 1032.4
20200531035004 16 281 0.0 3.2 0.00 0.00 0.00 59 1032.4
20200531034500 16 243 0.0 8.0 0.00 0.00 0.00 58 1032.4
20200531034004 16 188 1.6 11.3 0.00 0.00 0.00 58 1032.5
20200531033500 16 157 8.0 11.3 0.00 0.00 0.00 59 1032.4
20200531033004 16 164 4.8 9.7 0.00 0.00 0.00 60 1032.3
20200531033002 16 164 3.2 9.7 0.00 0.00 0.00 60 1018.4
20200531032506 17 123 0.0 0.0 0.00 0.00 0.00 58 1032.1
20200531032007 17 144 0.0 0.0 0.00 0.00 0.00 55 1032.0
20200531031500 17 159 0.0 0.0 0.00 0.00 0.00 56 1031.8
20200531031020 17 150 0.0 0.0 0.00 0.00 0.00 55 1031.7
20200531030500 17 161 0.0 0.0 0.00 0.00 0.00 56 1031.7
20200531030007 17 205 0.0 0.0 0.00 0.00 0.00 56 1031.7
20200531030004 17 205 0.0 0.0 0.00 0.00 0.00 56 1017.7
20200531025509 17 234 0.0 0.0 0.00 0.00 0.00 56 1031.6
20200531025008 17 233 0.0 0.0 0.00 0.00 0.00 57 1031.6
20200531024500 17 226 0.0 0.0 0.00 0.00 0.00 59 1031.4
20200531024003 17 249 0.0 0.0 0.00 0.00 0.00 59 1031.4
20200531023500 17 219 0.0 0.0 0.00 0.00 0.00 59 1031.5
20200531023008 17 16 0.0 0.0 0.00 0.00 0.00 59 1031.5
20200531023004 17 16 0.0 0.0 0.00 0.00 0.00 59 1017.5
20200531022500 17 16 0.0 0.0 0.00 0.00 0.00 58 1031.5
20200531022011 17 16 0.0 0.0 0.00 0.00 0.00 58 1031.4
20200531021506 17 276 0.0 0.0 0.00 0.00 0.00 61 1031.4
20200531021004 17 268 0.0 0.0 0.00 0.00 0.00 62 1031.4
20200531020502 18 260 0.0 0.0 0.00 0.00 0.00 60 1031.3
20200531020010 18 257 0.0 0.0 0.00 0.00 0.00 60 1031.3
20200531020005 18 257 0.0 0.0 0.00 0.00 0.00 60 1017.2
20200531015512 18 223 0.0 0.0 0.00 0.08 0.00 58 1031.3
20200531015019 18 237 0.0 0.0 0.00 0.08 0.00 59 1031.3
20200531014500 18 237 0.0 0.0 0.00 0.08 0.00 59 1031.4
20200531014004 18 242 0.0 0.0 0.00 0.08 0.00 58 1031.5
20200531013502 18 206 0.0 8.0 0.00 0.08 0.00 58 1031.5
20200531013004 18 241 0.0 9.7 0.00 0.08 0.00 58 1031.5
20200531013002 18 241 0.0 9.7 0.00 0.08 0.00 58 1017.4
20200531012500 18 247 6.4 9.7 0.00 0.08 0.00 59 1031.5
20200531012003 18 238 4.8 8.0 0.00 0.08 0.00 59 1031.6
20200531011501 18 214 0.0 6.4 0.00 0.08 0.00 59 1031.6
20200531011012 18 233 1.6 9.7 0.00 0.08 0.00 58 1031.6
20200531010501 18 184 3.2 9.7 0.00 0.08 0.00 58 1031.5
20200531010021 18 245 4.8 8.0 0.00 0.08 0.00 58 1017.2
20200531010006 18 245 4.8 8.0 0.00 0.08 0.00 58 1031.5
20200531005459 18 246 6.4 9.7 0.00 0.08 0.00 57 1031.5
20200531005003 19 229 3.2 8.0 0.00 0.08 0.00 55 1031.5
20200531004459 19 248 1.6 9.7 0.00 0.08 0.00 54 1031.5
20200531004005 19 232 3.2 11.3 0.00 0.08 0.00 55 1031.4
20200531003459 19 226 4.8 16.1 0.00 0.08 0.00 55 1031.4
20200531003003 19 230 11.3 17.7 0.00 0.08 0.00 54 1031.3
20200531002501 19 240 11.3 19.3 0.00 0.08 0.00 53 1031.2
20200531002002 19 178 4.8 11.3 0.00 0.08 0.00 53 1031.3
20200531001459 20 219 4.8 11.3 0.00 0.08 0.00 54 1031.2
20200531001006 20 230 3.2 11.3 0.00 0.08 0.00 54 1031.3
20200531000500 20 242 8.0 14.5 0.00 0.08 0.00 53 1031.3
20200531000010 20 242 9.7 19.3 0.00 0.08 0.00 52 1016.9
20200531000007 20 242 11.3 19.3 0.00 0.08 0.00 52 1031.4
20200530235500 20 242 12.9 19.3 0.00 0.08 0.00 51 1031.4
20200530235003 20 248 14.5 19.3 0.00 0.08 0.00 51 1031.3
20200530234500 20 240 8.0 11.3 0.00 0.08 0.00 51 1031.4
20200530234003 21 214 4.8 16.1 0.00 0.08 0.00 48 1031.4
20200530233500 22 250 9.7 16.1 0.00 0.08 0.00 47 1031.5
20200530233005 22 101 0.0 6.4 0.00 0.08 0.00 51 1031.4
20200530233002 22 101 0.0 6.4 0.00 0.08 0.00 51 1016.7
20200530232500 22 87 3.2 6.4 0.00 0.08 0.00 50 1031.4
20200530232003 22 74 4.8 9.7 0.00 0.08 0.00 47 1031.4
20200530231500 22 61 4.8 11.3 0.00 0.08 0.00 50 1031.4
20200530231004 22 53 6.4 11.3 0.00 0.08 0.00 47 1031.4
20200530230500 22 55 4.8 11.3 0.00 0.08 0.00 48 1031.3
20200530230014 22 53 6.4 9.7 0.00 0.08 0.00 46 1016.4
20200530230009 22 53 8.0 9.7 0.00 0.08 0.00 46 1031.2
20200530225500 23 46 4.8 8.0 0.00 0.13 0.00 47 1031.3
20200530225006 23 86 4.8 8.0 0.00 0.13 0.00 45 1031.3
20200530224500 23 72 6.4 8.0 0.00 0.13 0.00 45 1031.4
20200530224003 23 108 6.4 11.3 0.00 0.13 0.00 45 1031.3
20200530223500 23 68 6.4 12.9 0.00 0.13 0.00 45 1031.3
20200530223006 23 67 4.8 11.3 0.00 0.13 0.00 46 1016.6
20200530222500 23 65 8.0 11.3 0.00 0.13 0.00 46 1031.4
20200530222004 23 103 6.4 9.7 0.00 0.13 0.00 45 1031.4
20200530221500 23 103 6.4 12.9 0.00 0.13 0.00 44 1031.4
20200530221004 23 87 8.0 12.9 0.00 0.13 0.00 42 1031.3
20200530220500 23 107 8.0 12.9 0.00 0.13 0.00 44 1031.4
20200530220020 23 109 6.4 17.7 0.00 0.13 0.00 46 1016.6
20200530220006 23 109 6.4 17.7 0.00 0.13 0.00 46 1031.4
20200530215501 23 101 12.9 17.7 0.00 0.15 0.00 46 1031.4
20200530215004 23 65 8.0 16.1 0.00 0.15 0.00 46 1031.4
20200530214500 23 87 14.5 16.1 0.00 0.15 0.00 44 1031.5
20200530214006 23 90 9.7 17.7 0.00 0.15 0.00 44 1031.4
20200530213500 23 78 12.9 17.7 0.00 0.15 0.00 45 1031.4
20200530213007 23 85 11.3 17.7 0.00 0.15 0.00 44 1016.6
20200530213003 23 85 11.3 17.7 0.00 0.15 0.00 44 1031.3
20200530212500 23 67 12.9 24.1 0.00 0.15 0.00 43 1031.4
20200530212004 23 75 16.1 24.1 0.00 0.15 0.00 42 1031.3
20200530211501 23 71 17.7 22.5 0.00 0.15 0.00 42 1031.4
20200530211006 23 58 14.5 19.3 0.00 0.15 0.00 44 1031.4
20200530210500 23 98 12.9 22.5 0.00 0.15 0.00 45 1031.5
20200530210013 23 57 19.3 24.1 0.00 0.15 0.00 44 1016.8
20200530210008 23 57 19.3 24.1 0.00 0.15 0.00 44 1031.5
20200530205500 23 88 16.1 29.0 0.00 0.15 0.00 45 1031.5
20200530205005 23 58 19.3 25.7 0.00 0.15 0.00 45 1031.5
20200530204500 24 61 16.1 22.5 0.00 0.15 0.00 44 1031.4
20200530204003 23 82 16.1 22.5 0.00 0.15 0.00 42 1031.5
20200530203500 23 74 17.7 20.9 0.00 0.15 0.00 43 1031.5
20200530203012 23 63 16.1 20.9 0.00 0.15 0.00 41 1016.8
20200530203004 23 63 16.1 20.9 0.00 0.15 0.00 41 1031.6
20200530202500 23 99 12.9 22.5 0.00 0.15 0.00 43 1031.7
20200530202004 23 63 16.1 25.7 0.00 0.15 0.00 45 1031.7
20200530201500 23 85 20.9 25.7 0.00 0.15 0.00 43 1031.8
20200530201006 23 71 19.3 29.0 0.00 0.15 0.00 43 1031.8
20200530200500 23 46 19.3 32.2 0.00 0.15 0.00 44 1031.9
20200530200018 23 55 17.7 30.6 0.00 0.15 0.00 44 1017.2
20200530200009 23 55 19.3 30.6 0.00 0.15 0.00 44 1031.9
20200530195500 24 53 14.5 29.0 0.00 0.15 0.00 44 1032.0
20200530195006 23 80 17.7 29.0 0.00 0.15 0.00 43 1032.1
20200530194500 24 67 19.3 25.7 0.00 0.15 0.00 41 1032.1
20200530194003 23 90 16.1 25.7 0.00 0.15 0.00 40 1032.3
20200530193500 23 59 19.3 25.7 0.00 0.15 0.00 40 1032.3
20200530193008 23 71 12.9 25.7 0.00 0.15 0.00 43 1017.6
20200530193004 23 71 14.5 25.7 0.00 0.15 0.00 43 1032.4
20200530192500 23 90 17.7 24.1 0.00 0.15 0.00 42 1032.3
20200530192003 23 84 14.5 24.1 0.00 0.15 0.00 40 1032.3
20200530191500 24 86 16.1 29.0 0.00 0.15 0.00 41 1032.3
20200530191004 23 71 16.1 29.0 0.00 0.15 0.00 44 1032.3
20200530190500 23 69 12.9 24.1 0.00 0.15 0.00 44 1032.4
20200530190008 23 74 12.9 22.5 0.00 0.15 0.00 42 1017.6
20200530185500 23 78 16.1 25.7 0.00 0.15 0.00 42 1032.5
20200530185003 23 55 17.7 32.2 0.00 0.15 0.00 45 1032.5
20200530184500 23 55 9.7 29.0 0.00 0.15 0.00 49 1032.6
20200530184004 23 92 16.1 25.7 0.00 0.15 0.00 41 1032.7
20200530183500 23 68 19.3 25.7 0.00 0.15 0.00 41 1032.8
20200530183004 23 17 16.1 24.1 0.00 0.15 0.00 46 1032.8
20200530183002 23 17 16.1 24.1 0.00 0.15 0.00 46 1018.1
20200530182500 23 67 16.1 25.7 0.00 0.15 0.00 44 1032.9
20200530182003 23 58 16.1 29.0 0.00 0.15 0.00 45 1032.8
20200530181500 23 63 19.3 29.0 0.00 0.15 0.00 43 1032.9
20200530181003 23 61 14.5 24.1 0.00 0.15 0.00 47 1032.8
20200530180500 23 34 17.7 25.7 0.00 0.15 0.00 43 1032.8
20200530180025 23 35 16.1 29.0 0.00 0.15 0.00 44 1018.2
20200530180010 23 53 17.7 29.0 0.00 0.15 0.00 44 1032.9
20200530175500 23 55 20.9 29.0 0.00 0.15 0.00 43 1032.8
20200530175004 23 17 19.3 25.7 0.00 0.15 0.00 41 1032.7
20200530174502 23 24 20.9 25.7 0.00 0.15 0.00 42 1032.7
20200530174005 23 21 20.9 24.1 0.00 0.15 0.00 39 1032.8
20200530173500 23 22 16.1 24.1 0.00 0.15 0.00 42 1032.8
20200530173004 23 54 16.1 25.7 0.00 0.15 0.00 41 1032.8
20200530172500 23 348 16.1 24.1 0.00 0.15 0.00 41 1032.7
20200530172003 23 326 14.5 20.9 0.00 0.15 0.00 41 1032.8
20200530171500 23 13 11.3 19.3 0.00 0.15 0.00 44 1032.8
20200530171007 23 355 12.9 22.5 0.00 0.15 0.00 44 1032.8
20200530170500 23 46 17.7 22.5 0.00 0.15 0.00 40 1032.8
20200530170008 23 47 14.5 20.9 0.00 0.15 0.00 36 1018.3
20200530165502 23 27 12.9 19.3 0.00 0.15 0.00 40 1032.9
20200530165004 23 57 11.3 19.3 0.00 0.15 0.00 39 1032.9
20200530164500 23 30 9.7 22.5 0.00 0.15 0.00 41 1032.9
20200530164003 23 46 17.7 24.1 0.00 0.15 0.00 39 1032.9
20200530163501 23 34 12.9 25.7 0.00 0.15 0.00 40 1032.9
20200530163004 23 43 9.7 25.7 0.00 0.15 0.00 43 1032.9
20200530162501 23 26 14.5 22.5 0.00 0.15 0.00 41 1033.0
20200530162005 23 28 17.7 22.5 0.00 0.15 0.00 40 1032.9
20200530161500 23 47 14.5 22.5 0.00 0.15 0.00 39 1033.0
20200530161004 23 70 14.5 19.3 0.00 0.15 0.00 38 1032.9
20200530160500 23 22 9.7 19.3 0.00 0.15 0.00 40 1032.9
20200530160010 23 67 14.5 19.3 0.00 0.15 0.00 37 1032.9
20200530160008 23 65 14.5 19.3 0.00 0.15 0.00 37 1018.3
20200530155500 23 351 14.5 17.7 0.00 0.15 0.00 39 1032.8
20200530155003 22 360 9.7 12.9 0.00 0.15 0.00 38 1032.9
20200530154500 22 26 9.7 11.3 0.00 0.15 0.00 38 1032.9
20200530154003 22 43 8.0 11.3 0.00 0.15 0.00 41 1032.9
20200530153500 22 30 3.2 11.3 0.00 0.15 0.00 42 1032.9
20200530153003 22 314 6.4 11.3 0.00 0.15 0.00 43 1032.9
20200530152500 21 314 4.8 11.3 0.00 0.15 0.00 46 1033.0
20200530152003 21 284 8.0 12.9 0.00 0.15 0.00 50 1033.0
20200530151500 20 281 9.7 12.9 0.00 0.15 0.00 51 1033.0
20200530151002 20 238 8.0 11.3 0.00 0.15 0.00 52 1033.0
20200530150501 20 298 6.4 11.3 0.00 0.15 0.00 54 1032.9
20200530150011 19 283 8.0 14.5 0.00 0.15 0.00 56 1018.3
20200530150008 19 283 8.0 14.5 0.00 0.15 0.00 56 1032.9
20200530145500 19 284 9.7 14.5 0.00 0.15 0.00 56 1032.9
20200530145004 19 267 9.7 16.1 0.00 0.15 0.00 56 1033.0
20200530144500 18 273 9.7 16.1 0.00 0.15 0.00 56 1033.0
20200530144005 18 288 12.9 19.3 0.00 0.15 0.00 56 1033.0
20200530143500 18 260 11.3 19.3 0.00 0.15 0.00 56 1033.1
20200530143007 19 275 11.3 19.3 0.00 0.15 0.00 55 1018.4
20200530143005 19 275 11.3 19.3 0.00 0.15 0.00 55 1033.0
20200530142500 19 273 11.3 19.3 0.00 0.15 0.00 53 1032.9
20200530142022 19 274 11.3 19.3 0.00 0.15 0.00 56 1032.9
20200530141500 19 244 11.3 19.3 0.00 0.15 0.00 55 1033.0
20200530141004 19 269 11.3 19.3 0.00 0.15 0.00 57 1032.9
20200530140500 18 279 12.9 24.1 0.00 0.15 0.00 57 1032.8
20200530140007 18 275 14.5 24.1 0.00 0.15 0.00 57 1018.1
20200530135500 18 276 17.7 22.5 0.00 0.15 0.00 58 1032.7
20200530135004 18 274 16.1 24.1 0.00 0.15 0.00 61 1032.7
20200530134500 17 283 16.1 22.5 0.00 0.15 0.00 60 1032.6
20200530134004 17 269 14.5 20.9 0.00 0.15 0.00 60 1032.7
20200530133500 17 254 16.1 22.5 0.00 0.15 0.00 61 1032.7
20200530133005 17 283 14.5 20.9 0.00 0.15 0.00 63 1032.7
20200530133001 17 283 12.9 20.9 0.00 0.15 0.00 63 1018.2
20200530132500 16 271 16.1 20.9 0.00 0.15 0.00 63 1032.7
20200530132003 16 260 14.5 20.9 0.00 0.15 0.00 64 1032.7
20200530131500 16 280 14.5 22.5 0.00 0.15 0.00 65 1032.7
20200530131003 16 283 17.7 22.5 0.00 0.15 0.00 66 1032.6
20200530130500 15 275 16.1 22.5 0.00 0.15 0.00 66 1032.6
20200530130005 15 281 16.1 24.1 0.00 0.15 0.00 67 1032.7
20200530125459 15 281 19.3 24.1 0.00 0.15 0.00 66 1032.7
20200530125003 15 242 17.7 24.1 0.00 0.15 0.00 67 1032.6
20200530124500 15 271 16.1 22.5 0.00 0.15 0.00 66 1032.6
20200530124004 14 275 12.9 17.7 0.00 0.15 0.00 67 1032.6
20200530123459 13 302 9.7 16.1 0.00 0.15 0.00 67 1032.6
20200530123002 13 256 6.4 11.3 0.00 0.15 0.00 66 1032.6
20200530122459 14 260 3.2 16.1 0.00 0.15 0.00 64 1032.5
20200530122003 14 250 8.0 17.7 0.00 0.15 0.00 64 1032.5
20200530121459 14 281 12.9 17.7 0.00 0.15 0.00 63 1032.4
20200530121002 14 272 11.3 17.7 0.00 0.15 0.00 62 1032.4
20200530120500 14 265 11.3 16.1 0.00 0.15 0.00 61 1032.3
20200530120006 14 271 11.3 17.7 0.00 0.15 0.00 60 1032.2
20200530115500 14 275 11.3 14.5 0.00 0.15 0.00 59 1032.3
20200530115003 14 273 8.0 14.5 0.00 0.15 0.00 59 1032.3
20200530114500 15 272 4.8 11.3 0.00 0.15 0.00 58 1032.2
20200530114003 15 262 6.4 12.9 0.00 0.15 0.00 57 1032.2
20200530113500 15 275 8.0 12.9 0.00 0.15 0.00 57 1032.0
20200530113006 15 273 8.0 16.1 0.00 0.15 0.00 56 1032.0
20200530113001 15 273 8.0 16.1 0.00 0.15 0.00 56 1017.9
20200530112500 15 275 9.7 16.1 0.00 0.15 0.00 57 1032.0
20200530112004 15 263 8.0 11.3 0.00 0.15 0.00 58 1032.0
20200530111501 14 269 4.8 9.7 0.00 0.15 0.00 59 1032.0
20200530111003 15 264 4.8 9.7 0.00 0.15 0.00 59 1032.0
20200530110500 15 271 4.8 11.3 0.00 0.15 0.00 59 1031.9
20200530110007 14 267 8.0 11.3 0.00 0.15 0.00 61 1031.8
20200530110005 14 267 6.4 11.3 0.00 0.15 0.00 61 1017.6
20200530105500 12 269 8.0 12.9 0.00 0.15 0.00 68 1031.7
20200530105003 12 256 8.0 9.7 0.00 0.15 0.00 70 1031.7
20200530104502 11 233 8.0 9.7 0.00 0.15 0.00 73 1031.7
20200530104003 11 236 8.0 11.3 0.00 0.15 0.00 73 1031.7
20200530103500 11 238 9.7 11.3 0.00 0.15 0.00 72 1031.6
20200530103004 12 239 9.7 11.3 0.00 0.15 0.00 70 1031.7
20200530103001 12 239 8.0 11.3 0.00 0.15 0.00 70 1017.5
20200530102500 12 242 6.4 8.0 0.00 0.15 0.00 70 1031.6
20200530102003 12 230 6.4 8.0 0.00 0.15 0.00 67 1031.5
20200530101500 13 256 1.6 9.7 0.00 0.15 0.00 65 1031.5
20200530101003 13 192 6.4 9.7 0.00 0.15 0.00 64 1031.5
20200530100500 13 233 6.4 8.0 0.00 0.15 0.00 66 1031.4
20200530100008 13 236 6.4 8.0 0.00 0.15 0.00 66 1031.3
20200530100003 13 237 6.4 8.0 0.00 0.15 0.00 66 1017.2
20200530095459 13 248 3.2 8.0 0.00 0.15 0.00 66 1031.3
20200530095002 13 256 4.8 6.4 0.00 0.15 0.00 66 1031.3
20200530094459 13 241 3.2 3.2 0.00 0.15 0.00 67 1031.3
20200530094002 13 230 1.6 3.2 0.00 0.15 0.00 67 1031.4
20200530093458 13 239 1.6 6.4 0.00 0.15 0.00 66 1031.4
20200530093002 13 236 4.8 4.8 0.00 0.15 0.00 66 1031.3
20200530092459 13 227 3.2 4.8 0.00 0.15 0.00 67 1031.3
20200530092001 13 232 3.2 8.0 0.00 0.15 0.00 67 1031.3
20200530091459 13 230 6.4 8.0 0.00 0.15 0.00 67 1031.3
20200530091005 13 246 6.4 8.0 0.00 0.15 0.00 67 1031.3
20200530090459 13 250 4.8 8.0 0.00 0.15 0.00 68 1031.3
20200530090012 13 233 4.8 9.7 0.00 0.15 0.00 68 1017.2
20200530090006 13 233 6.4 9.7 0.00 0.15 0.00 68 1031.3
20200530085500 13 242 8.0 9.7 0.00 0.15 0.00 68 1031.3
20200530085002 13 244 6.4 8.0 0.00 0.15 0.00 68 1031.4
20200530084500 13 250 3.2 3.2 0.00 0.15 0.00 68 1031.4
20200530084003 12 238 0.0 3.2 0.00 0.15 0.00 69 1031.5
20200530083500 12 233 1.6 8.0 0.00 0.15 0.00 70 1031.5
20200530083003 12 232 6.4 8.0 0.00 0.15 0.00 69 1031.4